CAPE
0 0 0 0 0 1 2 0 4 11 0 10 16 0 4 122 190 196 473 277 186 564 340 768 651 606 718 628 824 1044 1623 1631 1542 1374 1629 1267 1365 1607 1540 1185 1089 1095 1081 902 938 983 1115 1193 1228 1497 1699 2264 2668 2906 3088 3030 2926 2838 2364 2677 2312 2388 2505
0 0 0 0 0 0 0 0 0 1 8 20 2 1 96 0 36 77 169 256 117 154 136 972 1351 857 764 686 812 988 1586 1199 1438 1285 1413 1708 1331 1193 1633 1525 1251 1204 1143 1084 1036 1063 1172 1116 1195 1709 2188 2518 2942 3072 3145 3096 3074 3082 2131 2214 1816 2157 2471
0 0 0 0 0 0 0 0 0 3 2 4 2 22 19 30 3 16 220 139 28 86 491 438 1325 1112 831 861 1033 1249 1606 1453 1182 1384 1489 1294 1192 1147 1454 1622 1330 1165 1151 1265 1308 1158 1296 1350 1420 1849 2326 2627 2922 2912 2823 3034 2873 2745 2171 1337 1242 1609 2068
0 0 0 0 0 0 0 0 0 0 0 0 0 0 0 26 79 29 101 61 49 35 10 452 1170 1286 1281 1213 1398 1304 1778 1670 1450 1470 1499 1349 1193 1361 1605 1643 1399 1240 1149 1246 1329 1398 1583 1736 1694 1745 2334 2344 2438 2672 2686 2888 2830 2779 2260 1166 1112 1326 1469
0 0 0 0 0 0 0 0 0 0 0 0 0 0 0 0 34 6 12 45 58 877 1472 2263 2036 1862 1670 1550 1374 1322 1452 1577 1371 1333 1502 2004 2369 2101 1606 1833 1592 1308 1135 1038 1284 1460 1602 1723 1727 1810 2254 2240 2151 2313 2478 2827 2768 2490 2105 1362 1284 1639 1120
0 0 0 0 0 0 0 0 0 0 0 0 0 0 0 0 5 6 11 0 184 762 1129 1824 1880 1644 1702 1498 1474 1378 1504 1524 1349 1157 1308 1488 2074 2136 2469 2336 1750 1228 1147 967 1115 1360 1332 1524 1772 1953 2077 1936 1956 1365 1539 2370 2168 2594 2384 2245 2212 2577 1744
0 0 0 0 0 0 0 0 0 0 0 0 0 0 0 0 0 0 45 21 759 711 759 1352 1464 1497 1446 1353 1348 1426 1268 1399 1164 1296 1267 1490 1644 1776 1926 1512 1079 1076 1837 1414 1054 1055 1095 1113 1476 1622 1514 1359 1627 1637 1738 1962 2068 2432 2511 2655 2866 3248 2876
0 0 0 0 0 0 0 0 0 0 0 0 0 0 0 0 0 16 68 33 528 1076 970 1156 1600 1440 1561 1444 1331 1407 1444 1284 1268 1301 1396 1567 1639 1524 1586 1286 678 483 645 580 1010 867 738 1026 1278 1298 1110 1194 1185 1712 1887 2183 2187 2269 2437 2716 3073 3392 3307
0 0 0 0 0 0 0 0 0 0 0 0 0 0 1 0 0 4 0 0 98 1409 939 1110 1130 1128 1276 1355 1409 1256 1342 1460 1440 1343 1103 1145 1466 1600 1617 1460 1590 1838 1707 1406 1195 1478 2040 1925 1083 834 843 1084 1389 1642 1984 2032 2090 2142 2434 2742 3090 3313 3320
0 0 0 0 0 0 0 0 0 0 0 0 0 0 0 0 0 0 0 0 1305 1150 1026 1094 1233 1242 1523 1426 1298 1372 1464 1362 1278 1222 1264 1294 1352 1452 1514 1650 1571 1638 1772 1821 1757 1823 1459 1091 899 1069 1698 1788 1891 2030 1785 2055 2051 2196 2594 2553 2475 2610 2696
47 114 157 0 9 0 0 0 0 0 0 0 0 0 0 0 3 27 14 0 1173 1391 963 1125 1116 1261 1495 1254 1192 1194 1187 1160 1317 1592 1574 1511 1539 1503 1288 1490 1553 1856 1579 1572 1650 1859 2006 1684 1244 1216 1448 1598 1851 1533 1348 1896 1988 2211 2392 2408 2620 2715 2422
70 159 73 73 37 0 0 0 0 0 0 0 0 0 0 0 0 0 0 8 82 1408 1334 1212 1320 1327 1411 1083 968 914 944 940 1144 1413 1336 1243 1368 1363 1391 1425 1564 1614 1671 1618 1411 1463 1493 1793 1797 1836 1669 1726 1434 988 776 983 1675 2076 2231 2154 2085 2385 2331
58 176 283 305 283 232 215 178 90 105 84 38 11 0 366 380 0 4 715 899 279 1086 1379 1268 1133 1508 1054 1117 947 799 828 884 907 1014 1126 1119 1201 1184 1056 1005 950 872 758 1046 1274 1401 1456 1368 1406 1405 1394 1524 1852 1660 1427 1086 1456 1788 1519 1540 1703 1648 1973
60 120 197 284 292 254 298 410 425 444 402 496 431 622 826 862 1302 836 1036 2042 1770 1471 1445 1198 1198 1059 1084 955 884 769 766 903 950 981 1016 1006 1022 990 983 929 941 891 859 787 823 956 1059 1278 1118 1048 1159 1068 1243 1300 1470 1539 1489 1639 1572 1556 1721 1819 1761
24 84 175 231 202 182 202 242 426 573 575 656 743 834 858 1164 1362 926 1454 1986 1680 1305 1175 1196 984 1204 1071 1025 1125 1002 991 1024 1109 1059 1042 1032 841 784 852 1038 923 1016 870 891 918 979 1044 1023 1056 920 905 923 918 1477 1604 1603 1580 1644 1599 1602 1846 1652 1597
0 0 0 38 135 119 106 98 132 385 739 807 866 996 863 1173 1418 1382 1450 1319 1393 940 1243 1016 1051 1088 941 1132 1294 1216 1109 1188 1160 1145 1034 921 781 842 876 922 855 782 761 715 616 638 702 771 861 848 903 982 987 980 976 1196 1615 1780 1691 1598 1547 1494 1596
167 0 1 2 3 85 104 41 12 124 724 885 826 775 729 802 966 1231 825 752 1033 1215 986 978 929 949 905 1151 1385 1267 1223 1210 1227 1150 1042 859 847 855 722 776 746 724 652 565 603 513 582 554 576 656 722 758 879 913 899 953 963 1181 1291 1393 1343 1371 1142
72 10 51 18 33 162 55 0 0 37 374 805 691 587 734 842 916 981 769 1121 1101 1143 1035 1038 1009 1142 1060 1295 1290 1274 1158 1140 1041 975 806 766 691 623 594 523 435 461 455 532 494 452 473 560 640 690 698 680 745 804 826 861 852 784 765 656 788 829 814
81 195 13 20 130 36 1 0 0 156 408 621 460 490 699 749 748 718 938 946 1116 1041 894 963 925 1128 907 1230 1251 1090 1010 906 836 775 684 618 560 491 448 514 369 514 574 533 442 373 432 457 495 490 496 504 580 701 811 835 796 652 610 658 671 673 663
31 17 12 14 204 44 0 1 6 97 408 473 703 151 427 607 582 733 998 1105 1098 1068 950 850 1048 1220 889 931 1075 979 933 816 714 611 558 531 472 428 366 548 378 426 440 417 401 465 486 524 503 448 473 543 562 552 646 667 656 637 675 633 637 679 629
10 18 11 82 234 55 38 66 6 4 5 128 312 262 119 601 566 786 842 918 998 904 907 758 1130 1113 914 1210 1172 937 935 765 651 597 530 479 434 386 335 267 306 294 314 322 308 474 529 561 493 494 413 431 413 542 432 624 582 580 549 547 575 549 497
362 10 4 6 0 68 195 3 8 0 0 2 71 355 45 173 548 567 986 948 948 780 670 691 1054 966 1033 1256 1067 964 852 710 610 568 525 470 419 369 311 250 282 328 334 295 254 270 336 425 448 371 316 330 291 331 352 384 367 427 484 497 488 410 366
174 30 2 4 2 0 18 3 2 2 0 0 0 515 76 9 395 581 792 921 912 1002 977 847 912 1035 1155 848 797 741 678 601 505 477 423 405 419 379 338 278 217 199 251 166 131 136 154 232 241 194 211 292 296 306 412 373 332 298 300 467 423 338 241
14 192 80 11 55 250 27 4 3 0 0 0 0 17 29 0 92 512 663 919 884 1052 1043 999 1136 898 849 822 617 518 486 459 424 353 371 367 343 352 282 303 232 173 96 99 99 28 153 262 290 225 142 192 304 275 189 148 237 247 214 263 307 305 96
81 24 181 95 10 10 0 5 9 48 0 15 23 21 11 0 13 347 675 769 936 1042 1036 976 999 772 734 541 223 71 140 46 90 228 287 312 329 300 298 268 222 166 43 29 0 97 123 147 230 259 208 206 208 229 220 194 243 259 0 177 269 238 209
16 17 56 5 106 1 17 70 109 253 42 328 22 5 7 14 35 227 432 675 836 925 907 884 696 822 564 335 150 127 113 164 144 181 84 12 0 0 0 0 0 46 31 65 87 7 21 106 236 342 263 123 90 174 218 223 230 201 173 80 81 188 163
2 12 4 4 9 224 42 260 406 193 558 31 17 162 150 106 48 195 300 383 650 727 868 656 666 691 494 296 260 227 201 151 44 53 64 74 18 0 2 0 0 0 4 0 47 76 91 118 214 213 190 169 116 106 160 222 219 163 147 139 189 195 66
29 0 0 42 49 24 54 299 197 31 21 14 49 148 53 162 213 401 609 326 465 536 674 636 622 636 492 323 245 253 225 134 84 61 0 0 0 7 2 0 0 0 0 0 0 2 58 97 98 94 115 131 143 151 163 169 169 148 140 149 174 203 201
283 138 106 68 87 50 20 105 100 84 40 10 9 93 56 75 145 210 556 693 498 557 556 521 606 550 326 319 279 287 47 130 94 86 54 4 0 0 0 1 0 0 0 0 0 0 28 43 27 0 0 31 85 112 114 125 137 158 143 154 152 137 154
47 65 156 114 210 258 60 7 63 126 71 0 46 71 99 166 309 327 591 759 533 461 458 440 453 468 485 258 204 288 173 109 76 56 17 25 0 0 0 0 0 0 0 0 0 0 0 0 0 0 0 0 0 0 0 12 67 99 146 172 160 143 136
115 150 294 412 214 158 233 104 45 154 62 53 33 56 57 214 423 660 634 791 668 575 407 469 539 554 459 323 205 217 119 73 75 58 45 36 18 4 0 0 0 0 0 0 0 0 0 0 0 0 4 19 0 0 0 0 0 0 0 8 68 94 115
120 402 217 302 215 177 201 201 282 128 89 65 50 42 53 158 370 473 500 646 731 546 540 521 541 316 242 177 199 179 108 96 21 33 72 21 29 13 2 0 0 0 0 0 0 0 0 0 0 0 0 7 0 0 0 0 0 0 0 0 0 0 0
252 47 92 180 216 219 224 112 102 123 130 156 90 40 13 7 73 279 301 302 554 600 578 432 385 258 214 167 203 254 227 234 51 30 130 135 157 127 12 7 0 0 0 0 0 0 0 0 0 0 0 0 0 0 0 0 0 0 0 0 0 0 0
76 149 229 60 34 158 185 153 194 142 115 181 154 112 52 23 48 68 123 212 227 300 383 452 330 194 220 217 264 354 335 394 269 175 29 24 188 65 6 4 1 0 0 0 0 0 0 0 0 0 0 0 0 0 0 0 0 0 0 0 0 0 0
143 295 200 48 49 34 292 183 123 174 103 143 141 137 141 67 51 47 103 116 156 245 324 261 382 448 348 197 193 185 163 353 407 322 205 157 85 44 20 14 0 0 0 0 1 0 0 1 0 0 0 0 0 0 0 0 0 0 0 0 0 0 0
68 18 142 46 6 55 211 161 148 190 177 162 138 155 157 106 50 56 84 63 133 156 131 184 219 319 434 390 204 173 194 197 401 331 215 85 18 6 9 6 9 1 0 0 0 0 0 1 2 0 0 0 0 0 0 0 0 0 0 0 0 0 0
80 32 44 60 80 127 156 175 152 180 206 202 180 203 197 204 101 57 118 84 49 95 182 236 150 138 299 350 250 240 268 316 328 309 216 79 7 18 6 10 51 36 5 1 0 0 0 0 0 0 0 0 0 0 0 0 0 0 0 0 0 0 0
Wind_Speed
nan nan nan nan nan nan nan nan nan nan nan nan nan nan nan 19 19 16 25 18 17 26 16 19 17 15 15 13 13 16 19 20 22 20 17 13 23 26 22 20 17 14 12 13 15 15 15 14 14 15 16 17 16 18 17 16 14 14 12 12 10 9 9
nan nan nan nan nan nan nan nan nan nan nan nan nan nan nan nan nan nan 18 15 15 17 20 22 18 14 16 14 12 16 20 20 21 18 16 14 19 24 25 21 18 16 15 14 15 16 15 15 15 15 15 16 17 17 17 16 15 13 13 12 10 10 10
nan nan nan nan nan nan nan nan nan nan nan nan nan nan nan nan nan nan 19 17 nan nan 22 21 18 16 17 14 14 17 19 20 20 19 17 17 16 23 26 23 20 18 17 16 16 16 16 16 16 16 15 16 17 16 16 15 14 13 11 11 10 10 10
nan nan nan nan nan nan nan nan nan nan nan nan nan nan nan nan nan nan 20 nan nan nan nan 22 15 18 17 16 15 15 18 19 19 19 19 18 17 24 29 22 19 19 17 17 17 18 19 19 18 18 16 15 14 14 15 14 14 14 11 9 10 10 10
nan nan nan nan nan nan nan nan nan nan nan nan nan nan nan nan nan nan nan nan nan 28 25 24 22 18 17 16 16 15 15 18 18 18 18 16 16 26 28 22 19 19 18 18 19 21 22 22 21 20 18 15 14 14 14 14 14 12 10 9 10 10 11
nan nan nan nan nan nan nan nan nan nan nan nan nan nan nan nan nan nan nan nan 27 28 23 23 22 21 19 18 17 16 14 16 16 15 16 15 13 25 33 32 27 23 22 21 23 25 24 24 22 21 20 18 15 14 15 14 13 12 11 10 10 10 11
nan nan nan nan nan nan nan nan nan nan nan nan nan nan nan nan nan nan nan nan 25 24 22 23 23 22 21 17 17 16 14 15 14 14 15 16 15 17 24 33 37 35 33 33 32 28 25 23 23 22 20 18 16 15 14 14 12 12 11 11 11 12 12
nan nan nan nan nan nan nan nan nan nan nan nan nan nan nan nan nan nan nan nan 27 26 22 22 25 24 23 19 17 17 16 15 14 14 15 15 16 16 20 30 36 33 32 34 36 33 30 27 27 24 22 22 20 17 15 15 13 14 14 15 14 13 13
nan nan nan nan nan nan nan nan nan nan nan nan nan nan nan nan nan nan nan nan nan 26 20 24 23 23 23 21 20 18 17 15 13 14 15 13 14 15 17 22 34 43 39 33 34 34 35 35 32 29 26 24 22 18 17 17 17 17 17 17 18 17 15
nan nan nan nan nan nan nan nan nan nan nan nan nan nan nan nan nan nan nan nan 34 27 20 23 24 25 25 26 23 21 17 13 11 11 14 13 12 12 13 14 26 39 40 39 40 39 35 32 31 33 33 29 26 24 22 20 18 17 18 18 17 17 16
nan 36 42 nan nan nan nan nan nan nan nan nan nan nan nan nan nan nan nan nan 29 24 19 20 24 25 27 26 22 17 14 14 14 10 8 9 9 10 11 11 14 25 31 35 39 39 36 33 31 31 29 27 28 28 27 24 20 18 19 19 17 16 16
nan 30 nan nan nan nan nan nan nan nan nan nan nan nan nan nan nan nan nan nan nan 25 23 21 23 26 29 26 22 16 13 16 15 16 16 12 11 12 11 11 13 17 18 20 25 29 32 33 36 38 36 31 29 29 23 19 19 19 21 20 17 17 19
nan 31 31 32 36 39 38 38 nan 34 nan nan nan nan 41 39 nan nan 30 26 22 33 29 26 25 26 27 27 25 18 14 18 18 16 14 14 17 18 17 16 16 15 13 15 16 17 18 19 22 31 37 37 36 33 28 21 18 18 20 19 18 19 21
nan 30 26 27 34 38 42 43 41 40 37 38 37 39 41 39 37 34 28 33 37 38 36 31 31 26 25 29 31 27 22 20 19 17 15 15 17 19 20 18 18 17 17 16 14 14 14 14 13 18 29 39 37 29 26 22 20 22 23 22 22 23 23
nan nan 27 27 31 37 43 45 45 43 41 43 44 44 45 40 40 38 35 36 38 38 37 37 34 31 32 29 29 31 31 28 24 22 21 22 27 25 23 17 17 18 19 19 17 14 15 16 17 13 15 28 33 31 31 28 25 24 24 24 24 24 24
nan nan nan nan 30 36 42 nan 45 45 43 42 45 44 45 43 41 39 34 35 37 36 36 35 32 33 32 29 27 28 29 30 30 28 27 30 30 26 22 20 23 23 23 23 21 20 20 21 22 19 14 13 19 23 26 29 30 30 28 27 26 25 25
26 nan nan nan nan nan 34 nan nan 40 42 41 44 45 46 45 38 33 35 41 39 37 34 34 32 31 30 29 26 24 24 26 29 32 33 34 32 30 27 25 26 27 26 24 24 26 26 25 24 22 21 20 20 19 19 19 20 21 20 19 20 21 20
nan nan nan nan nan 23 nan nan nan nan 41 43 44 46 47 46 42 40 37 38 38 35 31 31 32 32 31 31 30 27 26 25 27 30 33 36 38 34 30 28 28 29 27 26 26 27 29 29 28 28 27 26 24 22 21 22 24 25 26 27 26 24 23
nan 37 nan nan 30 nan nan nan nan 34 34 36 44 46 47 46 43 41 40 36 35 34 30 34 34 34 37 37 34 34 34 31 28 29 30 33 37 35 30 29 30 29 29 29 30 30 30 30 29 30 31 30 30 29 28 28 27 27 28 27 27 26 27
nan nan nan nan 37 nan nan nan nan nan 27 33 28 44 46 45 43 43 42 40 38 35 39 39 36 35 39 40 37 36 36 33 31 29 30 32 33 32 30 30 29 26 28 30 31 31 29 29 30 31 32 31 33 34 35 35 33 32 31 31 30 29 29
nan nan nan nan 33 nan nan nan nan nan nan 35 34 37 40 41 41 41 40 38 37 37 38 38 36 37 38 40 38 39 39 35 34 33 32 34 37 36 32 31 31 30 29 30 31 30 30 30 30 31 31 33 35 35 36 37 36 35 36 35 33 32 32
25 nan nan nan nan nan 34 nan nan nan nan nan nan 29 nan 38 38 36 37 38 35 35 34 35 34 33 38 40 40 40 41 40 41 40 38 36 37 38 38 36 35 35 34 32 31 32 33 33 31 30 30 32 35 35 35 36 38 38 38 38 36 35 34
17 nan nan nan nan nan nan nan nan nan nan nan nan 29 nan nan 36 34 32 35 33 32 32 33 31 31 34 41 42 42 42 43 43 44 43 42 41 41 40 39 39 38 37 37 36 35 36 35 32 34 34 33 35 36 35 37 39 41 40 39 38 38 37
nan 12 nan nan nan 25 nan nan nan nan nan nan nan nan nan nan nan 34 32 34 33 33 32 30 32 32 31 37 43 44 47 48 49 47 47 46 46 44 45 45 45 45 nan nan nan nan 35 34 33 34 34 35 36 35 34 35 38 41 40 38 38 37 nan
nan nan 14 nan nan nan nan nan nan nan nan nan nan nan nan nan nan 35 32 33 33 33 33 32 33 36 37 40 39 nan 43 nan nan 47 46 47 47 47 49 49 48 47 nan nan nan nan 38 36 36 35 35 36 37 37 38 39 39 39 nan 40 40 38 36
nan nan nan nan 22 nan nan nan 19 21 nan 24 nan nan nan nan nan 36 34 34 34 32 34 34 37 38 41 40 39 39 38 41 41 41 nan nan nan nan nan nan nan nan nan nan nan nan nan 40 38 38 37 38 nan 39 40 41 40 39 38 nan nan 40 38
nan nan nan nan nan 17 nan 20 13 22 20 nan nan 28 31 31 nan 30 32 33 36 35 37 38 41 44 41 39 39 39 39 39 nan nan nan nan nan nan nan nan nan nan nan nan nan nan nan 44 42 41 42 41 40 40 41 41 40 40 39 39 39 39 nan
nan nan nan nan nan nan nan 21 20 nan nan nan nan 24 nan 30 31 31 30 31 33 35 39 40 42 47 45 42 42 41 41 40 nan nan nan nan nan nan nan nan nan nan nan nan nan nan nan nan nan nan 43 43 42 42 43 41 41 41 41 41 40 40 39
15 15 15 nan nan nan nan 18 18 nan nan nan nan nan nan nan 31 32 32 36 34 33 35 38 41 43 42 45 44 44 nan 43 nan nan nan nan nan nan nan nan nan nan nan nan nan nan nan nan nan nan nan nan nan 45 43 42 42 42 43 42 42 42 41
nan nan 14 10 10 12 nan nan nan 15 nan nan nan nan nan 25 26 28 32 34 35 36 35 35 35 35 37 40 42 44 45 45 nan nan nan nan nan nan nan nan nan nan nan nan nan nan nan nan nan nan nan nan nan nan nan nan nan nan 43 44 44 44 43
6 9 8 10 11 9 10 11 nan 13 nan nan nan nan nan 22 23 25 27 29 30 32 34 34 36 36 37 36 38 42 42 nan nan nan nan nan nan nan nan nan nan nan nan nan nan nan nan nan nan nan nan nan nan nan nan nan nan nan nan nan nan nan 44
9 13 11 11 11 10 10 9 12 14 nan nan nan nan nan 21 23 24 25 24 27 27 28 31 32 35 37 37 39 40 39 nan nan nan nan nan nan nan nan nan nan nan nan nan nan nan nan nan nan nan nan nan nan nan nan nan nan nan nan nan nan nan nan
14 nan nan 12 11 11 13 15 16 17 17 18 nan nan nan nan nan 25 25 25 26 26 28 28 29 31 34 36 38 39 41 41 nan nan 45 47 48 49 nan nan nan nan nan nan nan nan nan nan nan nan nan nan nan nan nan nan nan nan nan nan nan nan nan
nan 13 15 nan nan 14 16 18 19 20 20 20 23 23 nan nan nan nan 26 27 27 26 28 27 28 29 31 33 36 37 40 42 44 46 nan nan 49 nan nan nan nan nan nan nan nan nan nan nan nan nan nan nan nan nan nan nan nan nan nan nan nan nan nan
20 24 21 nan nan nan 21 21 21 22 21 22 24 25 27 nan nan nan 26 27 28 29 28 29 28 30 30 31 33 34 37 40 44 45 47 48 nan nan nan nan nan nan nan nan nan nan nan nan nan nan nan nan nan nan nan nan nan nan nan nan nan nan nan
nan nan 23 nan nan nan 22 23 24 24 24 23 26 27 28 29 nan nan nan nan 29 30 30 30 29 31 31 30 31 31 34 37 41 43 44 nan nan nan nan nan nan nan nan nan nan nan nan nan nan nan nan nan nan nan nan nan nan nan nan nan nan nan nan
nan nan nan nan nan 26 26 27 27 28 27 25 26 29 30 30 32 nan 32 nan nan nan 31 32 32 32 32 33 33 33 34 36 38 40 43 nan nan nan nan nan nan nan nan nan nan nan nan nan nan nan nan nan nan nan nan nan nan nan nan nan nan nan nan
Wind_Direction
nan nan nan nan nan nan nan nan nan nan nan nan nan nan nan 189 205 216 233 228 234 253 259 264 265 263 272 276 291 292 288 296 295 297 298 260 223 225 228 222 221 220 207 197 194 196 197 196 199 208 218 227 233 236 239 243 243 242 246 245 239 234 233
nan nan nan nan nan nan nan nan nan nan nan nan nan nan nan nan nan nan 234 233 238 249 250 245 256 259 267 278 286 292 289 294 302 300 304 277 244 232 227 223 220 219 210 200 200 202 201 200 203 209 218 223 229 235 242 249 251 250 250 252 248 244 244
nan nan nan nan nan nan nan nan nan nan nan nan nan nan nan nan nan nan 241 232 nan nan 250 253 255 254 265 278 282 285 289 293 306 306 298 294 270 237 226 219 217 217 213 204 204 207 208 207 208 212 216 222 226 231 237 244 252 257 259 255 256 249 252
nan nan nan nan nan nan nan nan nan nan nan nan nan nan nan nan nan nan 250 nan nan nan nan 255 246 251 261 276 283 284 289 292 298 310 305 298 272 231 219 216 216 220 219 209 208 212 215 216 215 216 218 220 227 231 237 241 244 248 247 250 255 253 251
nan nan nan nan nan nan nan nan nan nan nan nan nan nan nan nan nan nan nan nan nan 241 227 233 243 248 256 269 273 268 277 288 299 310 314 305 260 226 215 210 212 219 218 215 214 214 216 218 218 220 223 222 226 229 235 239 246 251 252 244 251 250 247
nan nan nan nan nan nan nan nan nan nan nan nan nan nan nan nan nan nan nan nan 238 232 220 222 233 240 248 257 262 262 267 283 292 301 311 321 274 231 222 219 216 219 220 218 220 217 216 220 221 223 225 225 228 230 231 235 239 241 245 246 247 248 245
nan nan nan nan nan nan nan nan nan nan nan nan nan nan nan nan nan nan nan nan 236 227 213 212 224 233 244 254 260 260 258 274 292 297 310 314 302 269 244 231 219 214 218 217 213 216 217 218 220 222 225 223 223 229 229 232 231 237 235 239 240 239 241
nan nan nan nan nan nan nan nan nan nan nan nan nan nan nan nan nan nan nan nan 234 232 216 216 221 225 227 242 256 259 257 260 275 295 302 308 301 293 266 245 230 217 214 213 214 212 212 212 218 220 221 222 222 222 223 226 229 230 227 224 229 231 234
nan nan nan nan nan nan nan nan nan nan nan nan nan nan nan nan nan nan nan nan nan 231 220 225 233 238 239 242 240 242 254 250 264 282 294 306 306 291 287 258 229 220 220 220 219 217 214 215 217 216 217 222 221 220 220 225 229 233 233 228 229 229 228
nan nan nan nan nan nan nan nan nan nan nan nan nan nan nan nan nan nan nan nan 238 241 229 232 238 243 245 242 233 222 234 251 253 276 284 291 304 299 304 280 233 222 223 223 223 222 216 210 213 217 219 220 222 221 222 219 226 236 242 240 239 241 244
nan 214 213 nan nan nan nan nan nan nan nan nan nan nan nan nan nan nan nan nan 242 249 243 239 248 253 257 252 232 221 232 236 224 233 262 277 285 294 308 303 253 235 236 233 230 228 224 219 217 221 223 223 227 228 222 219 223 231 241 245 249 251 252
nan 217 nan nan nan nan nan nan nan nan nan nan nan nan nan nan nan nan nan nan nan 245 253 245 250 261 261 249 227 212 231 238 222 220 227 241 262 270 279 289 272 248 244 241 237 232 230 227 223 221 224 225 227 228 228 227 227 231 238 245 250 255 256
nan 219 217 221 226 228 229 227 nan 226 nan nan nan nan 222 221 nan nan 233 244 236 241 250 250 245 250 264 255 234 217 233 243 235 227 231 243 251 255 262 267 261 258 260 248 241 238 240 241 236 231 223 221 226 227 226 228 230 235 243 248 250 255 255
nan 223 219 218 227 228 228 227 226 224 226 224 223 225 222 225 223 221 229 234 235 240 246 246 248 247 258 262 252 242 239 245 243 241 243 247 251 251 252 255 259 264 267 262 254 250 246 247 259 256 233 224 225 227 227 229 231 234 244 250 250 251 252
nan nan 223 220 230 228 228 225 224 223 225 225 223 223 222 220 229 226 238 241 240 237 241 245 248 249 250 256 262 260 257 254 250 249 251 247 242 247 250 257 277 282 281 277 264 256 256 253 266 286 254 226 224 227 227 228 231 237 242 249 251 252 254
nan nan nan nan 221 232 228 nan 219 219 220 224 222 224 222 223 225 226 236 240 239 241 247 247 248 252 254 255 258 261 264 264 259 257 254 249 252 262 261 262 269 273 278 283 278 267 263 261 268 282 285 250 231 233 236 234 234 235 239 241 246 249 251
208 nan nan nan nan nan 224 nan nan 213 222 229 231 228 225 224 217 221 229 232 232 244 248 252 251 251 253 258 258 256 261 264 262 260 257 257 267 274 272 266 267 268 267 268 268 265 263 269 274 273 271 265 250 245 244 238 239 239 238 240 243 245 250
nan nan nan nan nan 214 nan nan nan nan 219 224 229 226 226 226 224 229 228 231 241 249 250 253 256 258 256 254 255 254 253 255 259 260 259 259 262 268 270 266 260 258 258 256 256 258 260 262 263 263 265 266 263 260 256 248 245 244 244 240 237 239 242
nan 194 nan nan 214 nan nan nan nan 214 220 227 233 232 229 229 229 234 239 241 246 246 243 250 253 250 254 254 255 256 255 256 258 261 260 259 261 261 262 262 259 254 255 255 252 251 251 253 255 256 256 259 262 263 261 257 251 249 248 246 243 243 241
nan nan nan nan 212 nan nan nan nan nan 218 225 231 236 230 230 232 237 240 239 243 245 248 250 250 251 251 251 248 251 255 256 257 257 258 257 259 261 259 260 259 258 255 253 253 251 248 246 246 247 247 249 254 256 255 252 250 249 250 248 246 242 241
nan nan nan nan 207 nan nan nan nan nan nan 215 219 232 231 230 234 237 242 245 246 249 253 253 253 251 251 247 243 248 248 250 255 255 257 255 256 257 260 260 259 255 254 254 255 253 250 247 246 247 247 245 245 246 247 249 249 248 248 247 244 244 244
215 nan nan nan nan nan 214 nan nan nan nan nan nan 223 nan 229 233 237 240 245 249 252 253 256 257 256 252 245 245 248 253 250 249 250 251 253 256 258 260 259 260 259 257 255 254 254 252 249 246 246 247 246 246 246 247 248 248 247 247 249 248 246 243
224 nan nan nan nan nan nan nan nan nan nan nan nan 221 nan nan 227 237 237 245 248 251 256 258 258 256 252 250 249 249 251 251 253 255 253 254 258 261 262 263 263 262 260 257 254 251 249 247 246 247 249 249 247 244 243 245 245 247 245 246 247 248 247
nan 235 nan nan nan 225 nan nan nan nan nan nan nan nan nan nan nan 228 234 243 244 247 250 251 252 241 235 246 247 246 244 244 245 247 252 255 256 257 260 261 260 261 nan nan nan nan 250 247 246 244 242 242 247 249 246 248 247 246 245 248 251 252 nan
nan nan 248 nan nan nan nan nan nan nan nan nan nan nan nan nan nan 220 227 235 240 244 248 245 247 239 237 246 251 nan 247 nan nan 244 243 247 252 256 259 259 262 261 nan nan nan nan 249 248 246 245 245 246 248 248 248 248 248 250 nan 243 245 246 248
nan nan nan nan 241 nan nan nan 216 224 nan 226 nan nan nan nan nan 218 218 225 233 239 249 247 243 245 247 254 253 251 250 251 251 255 nan nan nan nan nan nan nan nan nan nan nan nan nan 248 247 245 245 246 nan 248 249 250 250 250 251 nan nan 247 249
nan nan nan nan nan 234 nan 195 223 226 223 nan nan 235 239 229 nan 226 227 224 229 229 242 244 247 250 248 246 247 248 247 247 nan nan nan nan nan nan nan nan nan nan nan nan nan nan nan 246 246 246 246 246 246 247 250 250 250 250 251 251 252 250 nan
nan nan nan nan nan nan nan 207 228 nan nan nan nan 232 nan 241 240 242 246 242 236 232 234 241 248 253 254 251 250 250 249 249 nan nan nan nan nan nan nan nan nan nan nan nan nan nan nan nan nan nan 248 248 247 248 249 250 252 254 254 253 253 253 253
192 212 226 nan nan nan nan 222 234 nan nan nan nan nan nan nan 240 240 243 249 249 247 246 248 250 253 252 254 255 253 nan 254 nan nan nan nan nan nan nan nan nan nan nan nan nan nan nan nan nan nan nan nan nan 250 250 251 252 254 255 254 253 253 252
nan nan 213 227 235 232 nan nan nan 234 nan nan nan nan nan 239 237 237 240 244 249 251 250 254 258 258 260 258 257 253 254 255 nan nan nan nan nan nan nan nan nan nan nan nan nan nan nan nan nan nan nan nan nan nan nan nan nan nan 255 255 254 252 252
175 219 232 234 240 244 241 246 nan 243 nan nan nan nan nan 241 238 240 241 242 248 249 251 252 255 259 264 266 262 258 257 nan nan nan nan nan nan nan nan nan nan nan nan nan nan nan nan nan nan nan nan nan nan nan nan nan nan nan nan nan nan nan 252
196 234 242 237 243 248 246 251 267 263 nan nan nan nan nan 249 249 246 245 245 248 248 251 250 252 257 261 265 266 266 265 nan nan nan nan nan nan nan nan nan nan nan nan nan nan nan nan nan nan nan nan nan nan nan nan nan nan nan nan nan nan nan nan
244 nan nan 249 255 264 270 265 254 257 260 265 nan nan nan nan nan 255 255 247 247 246 246 250 251 255 257 259 262 264 264 263 nan nan 265 265 264 263 nan nan nan nan nan nan nan nan nan nan nan nan nan nan nan nan nan nan nan nan nan nan nan nan nan
nan 238 263 nan nan 267 277 271 268 267 266 264 265 264 nan nan nan nan 255 258 256 251 249 252 254 254 255 255 257 259 259 260 260 261 nan nan 263 nan nan nan nan nan nan nan nan nan nan nan nan nan nan nan nan nan nan nan nan nan nan nan nan nan nan
241 248 255 nan nan nan 255 267 270 270 267 266 265 264 262 nan nan nan 258 258 260 259 257 255 255 257 255 256 257 257 255 256 258 259 261 261 nan nan nan nan nan nan nan nan nan nan nan nan nan nan nan nan nan nan nan nan nan nan nan nan nan nan nan
nan nan 249 nan nan nan 263 266 268 269 266 266 268 267 266 264 nan nan nan nan 258 260 260 261 259 257 258 257 257 257 256 256 258 260 261 nan nan nan nan nan nan nan nan nan nan nan nan nan nan nan nan nan nan nan nan nan nan nan nan nan nan nan nan
nan nan nan nan nan 257 263 267 268 267 267 263 264 265 264 265 265 nan 264 nan nan nan 262 263 264 262 261 261 259 257 256 257 258 260 261 nan nan nan nan nan nan nan nan nan nan nan nan nan nan nan nan nan nan nan nan nan nan nan nan nan nan nan nan